Weather History for Kaiser, MO

Change the Weather History Date:

Monday, February 11, 2013

  Actual Average Record
Temperature  
Mean Temperature 39 °F -  
Max Temperature 50 °F 45 °F 69 °F (1999)
Min Temperature 26 °F 27 °F 1 °F (2014)
Degree Days  
Heating Degree Days 26    
Moisture  
Dew Point 22 °F    
Average Humidity 51    
Maximum Humidity 74    
Minimum Humidity 30    
Precipitation  
Precipitation 0.00 in - - ()
Sea Level Pressure  
Sea Level Pressure 30.10 in    
Wind  
Wind Speed 11 mph (West)    
Max Wind Speed 20 mph    
Max Gust Speed 36 mph    
Visibility 10 miles    
Events      
Averages and records for this station are not official NWS values.
T = Trace of Precipitation, MM = Missing Value Source: NWS Daily Summary

Daily Weather History Graph

Daily Weather History Graph

Search for Another Location

Airport:

Trip Planner

Search our weather history database for the weather conditions in past years. The results will help you decide how hot, cold, wet, or windy it might be!

Date:

Astronomy

Feb. 11, 2013 Rise Set
Actual Time 7:04 AM CST 5:44 PM CST
Civil Twilight 6:37 AM CST 6:11 PM CST
Nautical Twilight 6:06 AM CST 6:42 PM CST
Astronomical Twilight 5:35 AM CST 7:13 PM CST
Moon 7:31 AM CST (2/11) 7:39 PM CST (2/11)
Length of Visible Light 11h 34m
Length of Day
10h 40m
Waxing Crescent, 3% of the Moon is Illuminated
Feb 11
Waxing Crescent
Feb 17
First Quarter
Feb 25
Full
Mar 4
Last Quarter
Mar 11
New

Hourly Weather History & Observations

Time (CST) Temp. Windchill Dew Point Humidity Pressure Visibility Wind Dir Wind Speed Gust Speed Precip Events Conditions
12:15 AM 39.2 °F 29.6 °F 21.2 °F 49% 29.94 in 10.0 mi WNW 19.6 mph 35.7 mph N/A   Clear
12:35 AM 39.2 °F 30.5 °F 21.2 °F 49% 29.96 in 10.0 mi West 16.1 mph 29.9 mph N/A   Clear
12:55 AM 39.2 °F 30.5 °F 21.2 °F 49% 29.97 in 10.0 mi West 16.1 mph 28.8 mph N/A   Clear
1:15 AM 39.2 °F 32.0 °F 21.2 °F 49% 29.98 in 10.0 mi West 11.5 mph 25.3 mph N/A   Clear
1:35 AM 37.4 °F 28.5 °F 21.2 °F 52% 29.98 in 10.0 mi West 15.0 mph 23.0 mph N/A   Clear
1:55 AM 37.4 °F 29.8 °F 21.2 °F 52% 29.98 in 10.0 mi West 11.5 mph 18.4 mph N/A   Clear
2:15 AM 37.4 °F 30.3 °F 21.2 °F 52% 29.98 in 10.0 mi West 10.4 mph 18.4 mph N/A   Clear
2:35 AM 37.4 °F 29.8 °F 21.2 °F 52% 29.98 in 10.0 mi West 11.5 mph 18.4 mph N/A   Clear
2:55 AM 37.4 °F 29.8 °F 21.2 °F 52% 29.98 in 10.0 mi West 11.5 mph 18.4 mph N/A   Clear
3:15 AM 37.4 °F 28.5 °F 21.2 °F 52% 29.99 in 10.0 mi West 15.0 mph 21.9 mph N/A   Clear
3:35 AM 37.4 °F 29.8 °F 23.0 °F 56% 29.98 in 10.0 mi West 11.5 mph 23.0 mph N/A   Clear
3:55 AM 37.4 °F 28.9 °F 23.0 °F 56% 29.98 in 10.0 mi West 13.8 mph 17.3 mph N/A   Clear
4:15 AM 37.4 °F 30.3 °F 23.0 °F 56% 30.00 in 10.0 mi West 10.4 mph - N/A   Clear
4:35 AM 37.4 °F 29.8 °F 24.8 °F 60% 30.00 in 10.0 mi West 11.5 mph 20.7 mph N/A   Clear
4:55 AM 37.4 °F 30.3 °F 23.0 °F 56% 30.01 in 10.0 mi West 10.4 mph 20.7 mph N/A   Clear
5:15 AM 37.4 °F 29.3 °F 24.8 °F 60% 30.01 in 10.0 mi West 12.7 mph 17.3 mph N/A   Clear
5:35 AM 35.6 °F 28.0 °F 24.8 °F 65% 30.03 in 10.0 mi West 10.4 mph 18.4 mph N/A   Clear
6:15 AM 35.6 °F 28.6 °F 23.0 °F 60% 30.06 in 10.0 mi West 9.2 mph - N/A   Clear
6:35 AM 35.6 °F 29.2 °F 23.0 °F 60% 30.07 in 10.0 mi West 8.1 mph - N/A   Clear
6:55 AM 35.6 °F 27.1 °F 23.0 °F 60% 30.09 in 10.0 mi West 12.7 mph 17.3 mph N/A   Clear
7:15 AM 35.6 °F 29.2 °F 23.0 °F 60% 30.10 in 10.0 mi West 8.1 mph - N/A   Clear
7:35 AM 35.6 °F 29.9 °F 23.0 °F 60% 30.11 in 10.0 mi West 6.9 mph - N/A   Clear
7:55 AM 35.6 °F 29.2 °F 23.0 °F 60% 30.11 in 10.0 mi West 8.1 mph 21.9 mph N/A   Clear
8:15 AM 35.6 °F 28.6 °F 24.8 °F 65% 30.12 in 10.0 mi West 9.2 mph - N/A   Clear
8:35 AM 35.6 °F 29.2 °F 24.8 °F 65% 30.12 in 10.0 mi WNW 8.1 mph 17.3 mph N/A   Clear
8:55 AM 37.4 °F 30.3 °F 23.0 °F 56% 30.12 in 10.0 mi WNW 10.4 mph 18.4 mph N/A   Clear
9:15 AM 37.4 °F 30.8 °F 23.0 °F 56% 30.13 in 10.0 mi WNW 9.2 mph 16.1 mph N/A   Clear
9:35 AM 39.2 °F 30.5 °F 23.0 °F 52% 30.14 in 10.0 mi WNW 16.1 mph 20.7 mph N/A   Clear
9:55 AM 39.2 °F 32.5 °F 21.2 °F 49% 30.14 in 10.0 mi WNW 10.4 mph 20.7 mph N/A   Clear
10:15 AM 39.2 °F 32.5 °F 23.0 °F 52% 30.15 in 10.0 mi WNW 10.4 mph 16.1 mph N/A   Clear
10:35 AM 41.0 °F 33.5 °F 23.0 °F 49% 30.15 in 10.0 mi West 13.8 mph 19.6 mph N/A   Clear
10:55 AM 42.8 °F 36.6 °F 24.8 °F 49% 30.16 in 10.0 mi WSW 11.5 mph - N/A   Clear
11:15 AM 42.8 °F 37.0 °F 23.0 °F 46% 30.16 in 10.0 mi WNW 10.4 mph 18.4 mph N/A   Clear
11:35 AM 42.8 °F 38.0 °F 24.8 °F 49% 30.16 in 10.0 mi West 8.1 mph 17.3 mph N/A   Clear
11:55 AM 44.6 °F 38.1 °F 23.0 °F 43% 30.15 in 10.0 mi West 13.8 mph 18.4 mph N/A   Clear
12:15 PM 44.6 °F 39.7 °F 23.0 °F 43% 30.15 in 10.0 mi West 9.2 mph - N/A   Clear
12:35 PM 46.4 °F 41.5 °F 24.8 °F 43% 30.15 in 10.0 mi WSW 10.4 mph - N/A   Clear
12:55 PM 46.4 °F 40.1 °F 23.0 °F 40% 30.14 in 10.0 mi West 15.0 mph - N/A   Clear
1:15 PM 46.4 °F 41.5 °F 23.0 °F 40% 30.14 in 10.0 mi WNW 10.4 mph 17.3 mph N/A   Clear
1:35 PM 46.4 °F 41.1 °F 21.2 °F 37% 30.14 in 10.0 mi West 11.5 mph 17.3 mph N/A   Clear
1:55 PM 48.2 °F - 21.2 °F 34% 30.13 in 10.0 mi WNW 8.1 mph 17.3 mph N/A   Clear
2:15 PM 48.2 °F - 23.0 °F 37% 30.13 in 10.0 mi WNW 10.4 mph - N/A   Clear
2:35 PM 48.2 °F - 21.2 °F 34% 30.12 in 10.0 mi NW 10.4 mph - N/A   Clear
2:55 PM 48.2 °F - 21.2 °F 34% 30.12 in 10.0 mi West 9.2 mph 16.1 mph N/A   Clear
3:15 PM 48.2 °F - 21.2 °F 34% 30.12 in 10.0 mi West 10.4 mph - N/A   Clear
3:35 PM 50.0 °F - 19.4 °F 30% 30.12 in 10.0 mi WNW 8.1 mph - N/A   Clear
3:55 PM 48.2 °F - 21.2 °F 34% 30.12 in 10.0 mi West 8.1 mph - N/A   Clear
4:55 PM 48.2 °F - 19.4 °F 32% 30.12 in 10.0 mi WNW 4.6 mph - N/A   Clear
5:15 PM 48.2 °F - 19.4 °F 32% 30.12 in 10.0 mi WNW 5.8 mph - N/A   Clear
5:35 PM 46.4 °F 43.5 °F 19.4 °F 34% 30.12 in 10.0 mi WNW 5.8 mph - N/A   Clear
5:55 PM 44.6 °F 43.1 °F 19.4 °F 37% 30.13 in 10.0 mi West 3.5 mph - N/A   Clear
6:15 PM 44.6 °F 43.1 °F 19.4 °F 37% 30.13 in 10.0 mi NW 3.5 mph - N/A   Clear
6:35 PM 42.8 °F 41.1 °F 19.4 °F 39% 30.13 in 10.0 mi NW 3.5 mph - N/A   Clear
6:55 PM 41.0 °F 39.0 °F 19.4 °F 42% 30.14 in 10.0 mi WNW 3.5 mph - N/A   Clear
7:15 PM 37.4 °F 33.8 °F 19.4 °F 48% 30.14 in 10.0 mi WNW 4.6 mph - N/A   Clear
7:35 PM 39.2 °F 37.0 °F 21.2 °F 49% 30.14 in 10.0 mi West 3.5 mph - N/A   Clear
7:55 PM 37.4 °F - 21.2 °F 52% 30.15 in 10.0 mi Calm Calm - N/A   Clear
8:15 PM 37.4 °F - 21.2 °F 52% 30.15 in 10.0 mi Calm Calm - N/A   Clear
8:35 PM 33.8 °F - 21.2 °F 60% 30.15 in 10.0 mi Calm Calm - N/A   Clear
8:55 PM 33.8 °F - 21.2 °F 60% 30.15 in 10.0 mi Calm Calm - N/A   Clear
9:15 PM 33.8 °F - 21.2 °F 60% 30.16 in 10.0 mi Calm Calm - N/A   Clear
9:35 PM 32.0 °F - 21.2 °F 64% 30.16 in 10.0 mi Calm Calm - N/A   Clear
9:55 PM 30.2 °F - 21.2 °F 69% 30.17 in 10.0 mi Calm Calm - N/A   Clear
10:15 PM 30.2 °F - 21.2 °F 69% 30.16 in 10.0 mi Calm Calm - N/A   Clear
10:35 PM 28.4 °F - 19.4 °F 69% 30.17 in 10.0 mi Calm Calm - N/A   Clear
10:55 PM 30.2 °F - 21.2 °F 69% 30.17 in 10.0 mi Calm Calm - N/A   Clear
11:15 PM 28.4 °F - 19.4 °F 69% 30.17 in 10.0 mi Calm Calm - N/A   Clear
11:35 PM 28.4 °F - 21.2 °F 74% 30.17 in 10.0 mi Calm Calm - N/A   Clear
11:55 PM 26.6 °F - 19.4 °F 74% 30.17 in 10.0 mi Calm Calm - N/A   Clear